SCP
0 0 0 0 0 0 0 0 0 0 0 0 0 0 0 0 0 0 0 0 0 0 0 0 0 0 0 0 0 0 0 0 0 0 0 0 0 0 0 0 0 0 0
0 0 0 0 0 0 0 0 0 0 0 0 0 0 0 0 0 0 0 0 0 0 0 0 0 0 0 0 0 0 0 0 0 0 0 0 0 0 0 0 0 0 0
0 0 0 0 0 0 0 0 0 0 0 0 0 0 0 0 0 0 0 0 0 0 0 0 0 0 0 0 0 0 0 0 0 0 0 0 0 0 0 0 0 0 0
0 0 0 0 0 0 0 0 0 0 0 0 0 0 0 0 0 0 0 0 0 0 0 0 0 0 0 0 0 0 0 0 0 0 0 0 0 0 0 0 0 0 0
0 0 0 0 0 0 0 0 0 0 0 0 0 0 0 0 0 0 0 0 0 0 0 0 0 0 0 0 0 0 0 0 0 0 0 0 0 0 0 0 0 0 0
0 0 0 0 0 0 0 0 0 0 0 0 0 0 0 0 0 0 0 0 0 0 0 0 0 0 0 0 0 0 0 0 0 0 0 0 0 0 0 0 0 0 0
0 0 0 0 0 0 0 0 0 0 0 0 0 0 0 0 0 0 0 0 0 0 0 0 0 0 0 0 0 0 0 0 0 0 0 0 0 0 0 0 0 0 0
0 0 0 0 0 0 0 0 0 0 0 0 0 0 0 0 0 0 0 0 0 0 0 0 0 0 0 0 0 0 0 0 0 0 0 0 0 0 0 0 0 0 0
0 0 0 0 0 0 0 0 0 0 0 0 0 0 0 0 0 0 0 0 0 0 0 0 0 0 0 0 0 0 0 0 0 0 0 0 0 0 0 0 0 0 0
0 0 0 0 0 0 0 0 0 0 0 0 0 0 0 0 0 0 0 0 0 0 0 0 0 0 0 0 0 0 0 0 0 0 0 0 0 0 0 0 0 0 0
0 0 0 0 0 0 0 0 0 0 0 0 0 0 0 0 0 0 0 0 0 0 0 0 0 0 0 0 0 0 0 0 0 0 0 0 0 0 0 0 0 0 0
0 0 0 0 0 0 0 0 0 0 0 0 0 0 0 0 0 0 0 0 0 0 0 0 0 0 0 0 0 0 0 0 0 0 0 0 0 0 0 0 0 0 0
0 0 0 0 0 0 0 0 0 0 0 0 0 0 0 0 0 0 0 0 0 0 0 0 0 0 0 0 0 0 0 0 0 0 0 0 0 0 0 0 0 0 0
0 0 0 0 0 0 0 0 0 0 0 0 0 0 0 0 0 0 0 0 0 0 0 0 0 0 0 0 0 0 0 0 0 0 0 0 0 0 0 0 0 0 0
0 0 0 0 0 0 0 0 0 0 0 0 0 0 0 0 0 0 0 0 0 0 0 0 0 0 0 0 0 0 0 0 0 0 0 0 0 0 0 0 0 0 0
0 0 0 0 0 0 0 0 0 0 0 0 0 0 0 0 0 0 0 0 0 0 0 0 0 0 0 0 0 0 0 0 0 0 0 0 0 0 0 0 0 0 0
0 0 0 0 0 0 0 0 0 0 0 0 0 0 0 0 0 0 0 0 0 0 0 0 0 0 0 0 0 0 0 0 0 0 0 0 0 0 0 0 0 0 0
0 0 0 0 0 0 0 0 0 0 0 0 0 0 0 0 0 0 0 0 0 0 0 0 0 0 0 0 0 0 0 0 0 0 0 0 0 0 0 0 0 0 0
0 0 0 0 0 0 0 0 0 0 0 0 0 0 0 0 0 0 0 0 0 0 0 0 0 0 0 0 0 0 0 0 0 0 0 0 0 0 0 0 0 0 0
0 0 0 0 0 0 0 0 0 0 0 0 0 0 0 0 0 0 0 0 0 0 0 0 0 0 0 0 0 0 0 0 0 0 0 0 0 0 0 0 0 0 0
0 0 0 0 0 0 0 0 0 0 0 0 0 0 0 0 0 0 0 0 0 0 0 0 0 0 0 0 0 0 0 0 0 0 0 0 0 0 0 0 0 0 0
0 0 0 0 0 0 0 0 0 0 0 0 0 0 0 0 0 0 0 0 0 0 0 0 0 0 0 0 0 0 0 0 0 0 0 0 0 0 0 0 0 0 0
0 0 0 0 0 0 0 0 0 0 0 0 0 0 0 0 0 0 0 0 0 0 0 0 0 0 0 0 0 0 0 0 0 0 0 0 0 0 0 0 0 0 0
0 0 0 0 0 0 0 0 0 0 0 0 0 0 0 0 0 0 0 0 0 0 0 0 0 0 0 0 0 0 0 0 0 0 0 0 0 0 0 0 0 0 0
0 0 0 0 0 0 0 0 0 0 0 0 0 0 0 0 0 0 0 0 0 0 0 0 0 0 0 0 0 0 0 0 0 0 0 0 0 0 0 0 0 0 0
0 0 0 0 0 0 0 0 0 0 0 0 0 0 0 0 0 0 0 0 0 0 0 0 0 0 0 0 0 0 0 0 0 0 0 0 0 0 0 0 0 0 0
Wind_Speed
3 3 3 3 4 3 3 3 4 4 4 4 4 4 4 4 4 3 3 8 8 7 7 7 7 7 7 7 7 7 7 7 7 7 7 6 6 6 4 2 2 1 2
3 3 3 3 4 3 3 3 3 3 3 3 4 4 3 3 3 4 3 5 8 8 7 7 6 7 7 7 7 6 6 7 6 6 6 6 6 6 5 4 4 2 1
3 3 3 3 3 3 3 3 3 3 3 3 3 3 3 3 3 3 3 3 4 7 8 7 7 7 7 6 6 7 6 6 6 6 6 6 7 6 6 5 5 4 4
3 3 3 3 3 3 3 3 3 3 3 3 3 3 2 2 3 3 3 3 3 3 6 9 8 8 7 7 6 6 6 6 5 5 6 5 5 5 5 5 5 5 4
4 3 3 3 3 3 3 3 3 2 2 3 3 2 2 2 2 3 3 4 4 4 3 6 9 9 8 7 7 6 5 5 5 5 5 5 5 5 5 5 4 4 4
4 3 3 3 3 3 3 3 3 3 2 2 2 2 2 2 2 2 3 3 3 4 3 4 4 5 8 8 7 7 6 5 4 4 4 5 5 5 4 4 4 4 4
3 3 3 3 3 3 3 3 2 3 3 2 2 2 2 1 2 2 2 3 4 4 4 4 3 2 3 7 8 8 6 5 5 4 4 5 5 5 5 5 5 5 4
3 3 3 3 3 3 4 4 3 2 2 3 2 1 2 2 2 2 2 2 2 3 4 4 4 3 2 2 5 8 7 6 5 5 5 5 5 6 6 6 5 5 5
3 3 3 2 2 2 2 3 3 2 2 2 2 1 1 1 3 2 2 2 2 2 3 3 3 4 4 2 2 5 7 7 6 6 6 6 6 6 7 7 7 6 6
2 3 3 2 2 2 2 2 2 1 1 1 2 2 0 1 1 3 2 2 3 3 3 3 3 3 3 2 4 7 8 7 7 6 6 7 7 7 8 8 8 8 8
2 2 2 2 2 2 2 2 2 2 1 1 1 1 1 1 1 1 3 3 3 2 2 2 2 2 3 3 2 5 8 7 7 7 8 8 8 8 9 9 9 9 9
1 2 2 2 2 2 2 2 1 1 1 0 0 0 1 1 1 1 3 4 4 3 3 2 2 2 2 2 5 9 9 9 9 9 9 9 9 9 9 10 10 10 10
1 1 2 1 2 2 2 2 1 1 1 0 1 1 1 2 2 2 3 4 4 4 3 2 2 2 2 2 4 9 8 10 10 10 10 10 10 10 10 11 11 11 11
1 1 1 1 1 1 2 1 1 1 1 1 2 2 2 2 2 2 3 3 4 4 3 3 2 2 1 2 5 9 5 11 12 12 12 11 11 11 11 11 11 12 12
0 0 1 1 1 1 1 1 1 1 1 1 2 2 2 3 2 3 3 3 3 5 5 3 2 2 2 3 6 5 4 9 12 12 12 13 12 11 11 12 12 12 12
0 0 1 1 1 1 1 1 1 1 1 2 2 2 3 3 3 3 3 3 4 4 6 3 3 3 4 5 8 6 6 12 12 13 13 13 13 12 11 12 12 12 12
0 0 1 1 1 1 1 1 1 2 2 2 2 3 4 4 3 3 3 4 4 4 7 6 4 4 4 5 6 5 6 6 6 12 13 13 13 12 12 12 13 13 13
1 1 1 1 2 2 2 2 2 3 2 3 3 3 4 4 4 4 4 5 5 5 6 8 5 4 5 5 6 6 6 6 5 11 14 14 13 13 13 13 13 13 13
1 1 1 1 2 2 2 3 3 3 3 3 4 4 5 4 5 4 5 5 5 5 5 6 6 5 4 5 5 6 6 6 7 9 12 12 12 13 13 13 13 13 14
1 1 2 2 2 3 3 3 3 3 3 4 4 5 5 5 5 6 5 6 6 6 5 5 6 5 5 4 4 5 6 5 6 6 9 10 12 13 14 14 14 14 15
1 1 2 2 3 3 3 4 4 4 4 4 4 5 5 7 8 7 6 5 5 5 5 5 6 5 5 4 5 4 7 6 6 5 5 6 6 6 8 11 13 14 15
1 1 2 3 3 3 6 8 6 4 4 4 5 5 6 7 9 12 13 12 10 7 6 6 6 6 7 6 5 6 7 7 7 3 4 7 5 7 6 6 12 16 17
1 2 2 3 3 5 9 9 9 5 4 4 4 5 5 6 8 6 10 12 11 13 13 8 8 8 8 7 7 8 7 8 8 5 5 8 6 8 7 8 16 17 18
1 2 3 3 3 5 9 9 9 4 3 4 5 5 5 5 7 8 7 7 7 8 10 8 7 8 8 7 8 8 8 8 8 6 6 8 7 7 8 7 14 16 17
1 2 3 3 3 6 9 10 9 3 3 5 5 5 6 5 10 13 8 7 8 8 10 13 13 12 14 13 10 6 6 6 8 6 4 6 6 7 7 7 9 14 14
2 3 3 3 4 5 9 10 10 3 4 5 5 5 9 9 12 13 7 6 8 8 7 7 8 9 8 9 11 7 5 7 7 6 4 4 5 5 6 5 5 6 8
Wind_Direction
37 32 26 21 17 17 21 19 23 23 30 33 34 37 31 23 20 16 8 22 31 38 48 51 49 51 56 58 57 53 53 54 51 50 50 51 49 44 41 42 46 52 55
42 36 31 23 18 14 17 22 17 24 24 30 31 31 27 20 21 23 17 16 28 38 44 46 44 43 46 48 48 46 45 45 45 45 45 41 38 36 34 40 33 28 27
44 40 36 25 10 6 16 30 18 32 33 29 26 21 28 29 27 28 23 22 18 32 38 39 38 36 34 36 37 37 37 34 35 37 37 34 35 32 34 35 31 26 24
42 44 41 23 5 9 20 31 22 33 30 21 14 11 14 20 23 28 34 30 25 28 30 38 38 34 29 27 26 26 27 26 27 27 28 24 23 22 17 22 23 17 11
36 44 43 20 12 22 25 25 21 32 29 16 5 8 6 12 7 28 37 34 29 28 31 33 34 29 23 18 12 10 14 17 17 16 15 12 7 9 12 9 5 2 358
33 36 41 26 20 30 29 24 21 26 32 6 359 2 356 1 16 28 31 29 26 22 28 33 30 18 19 14 6 0 0 5 5 5 5 2 357 350 347 343 342 332 334
32 39 36 26 24 33 22 17 24 26 20 3 15 360 351 2 34 27 27 28 23 15 19 21 19 18 7 8 3 357 353 353 352 356 357 353 348 344 337 335 326 328 324
31 42 42 30 23 32 27 23 27 24 17 18 22 6 345 336 359 4 12 23 13 7 13 10 12 8 4 1 357 357 351 347 347 346 345 340 334 330 326 322 325 325 326
36 35 38 36 32 39 30 14 23 36 23 11 29 45 35 299 313 317 355 13 3 4 350 352 358 356 353 348 345 352 350 344 337 332 330 326 323 319 316 316 315 316 315
36 34 36 34 32 27 22 4 24 21 42 8 6 22 29 267 301 314 313 354 350 346 339 335 336 337 343 343 341 345 342 336 328 323 318 314 313 313 310 306 305 306 308
32 28 28 35 29 21 13 1 3 24 40 25 352 334 343 335 289 266 294 312 323 312 319 315 316 321 331 340 335 335 337 328 321 317 313 309 307 308 306 304 305 305 305
23 23 21 27 24 15 1 347 345 10 17 29 342 310 279 279 294 280 278 289 297 297 297 289 295 303 319 327 332 336 333 330 324 315 306 304 304 303 301 298 298 297 297
360 354 7 8 7 356 345 346 346 330 310 280 256 260 262 261 262 271 277 285 291 293 283 269 256 278 309 322 317 328 329 326 322 316 308 303 303 303 301 297 294 290 291
264 303 347 359 353 345 344 347 332 318 315 291 291 278 272 271 265 260 266 278 291 290 273 270 264 254 297 309 311 320 315 319 316 314 310 304 303 300 298 295 293 290 288
273 351 355 343 334 340 333 329 313 306 299 295 289 283 270 268 266 264 262 256 258 280 281 276 275 265 295 296 304 303 296 303 307 307 306 304 298 294 291 289 288 287 285
230 263 303 303 314 329 320 318 307 298 311 305 294 292 286 276 266 263 263 261 252 253 270 271 272 275 283 291 298 299 292 301 302 301 299 299 296 290 289 287 285 284 283
213 244 269 280 292 298 294 295 299 296 296 302 297 292 290 283 275 265 261 258 257 251 264 275 276 278 272 278 287 283 283 278 279 291 293 291 292 291 287 286 286 283 281
237 258 261 271 282 288 284 280 284 292 281 284 288 288 290 290 283 276 266 259 257 253 256 271 279 274 270 270 272 276 285 285 276 286 288 287 286 287 287 285 285 282 280
245 280 281 273 281 285 282 275 266 270 266 267 272 275 279 283 286 281 275 269 264 264 256 262 275 273 270 269 274 279 278 276 280 282 285 284 285 286 288 286 286 286 282
224 254 275 276 279 284 283 275 272 270 267 268 270 271 272 270 274 279 279 272 269 267 260 259 270 273 270 265 263 278 286 279 282 285 283 284 285 286 286 286 284 285 284
256 261 278 287 285 278 272 272 268 270 271 277 278 276 278 281 281 282 282 280 277 270 268 262 268 277 277 278 275 275 282 286 278 269 273 275 275 269 272 277 279 279 280
278 275 273 280 287 289 295 294 293 280 277 280 285 288 287 288 289 293 294 293 290 285 281 275 271 270 274 275 277 278 280 284 283 256 267 276 268 267 264 259 272 276 276
281 284 283 281 282 287 297 299 298 297 283 280 282 289 293 295 300 296 293 295 294 290 283 279 275 271 270 270 272 274 271 273 276 278 278 279 269 267 268 271 278 276 275
283 285 289 287 288 294 305 307 306 300 284 276 274 275 279 286 287 291 287 288 284 285 280 275 267 268 268 264 260 266 270 275 274 266 261 274 273 270 273 267 272 272 272
297 292 292 290 294 300 308 309 309 295 286 281 277 278 282 278 288 295 294 289 291 290 291 283 280 283 285 288 287 283 278 277 281 276 251 260 277 284 275 264 264 268 271
288 298 304 300 290 291 304 310 308 292 287 288 285 283 287 291 294 296 291 285 288 290 292 295 294 294 290 286 287 274 266 270 278 281 259 259 276 293 286 259 250 259 268